Alma, GA

1:39 AM EDT on May 01, 2017 (GMT -0400)
Bacon County

Weather History for KAMG - October, 2011

Change the Weather History Date:

Sunday, October 9, 2011

  Actual Average Record
Temperature  
Mean Temperature 70 °F 71 °F  
Max Temperature 77 °F 81 °F 93 °F (2009)
Min Temperature 62 °F 60 °F 40 °F (2000)
Degree Days  
Heating Degree Days 0 1  
Month to date heating degree days 9 4  
Since 1 July heating degree days 9 6  
Cooling Degree Days 5 6  
Month to date cooling degree days 27 66  
Year to date cooling degree days 2702 2336  
Growing Degree Days 20 (Base 50)    
Moisture  
Dew Point 62 °F    
Average Humidity 75    
Maximum Humidity 93    
Minimum Humidity 57    
Precipitation  
Precipitation 0.49 in 0.09 in 3.39 in (2008)
Month to date precipitation 0.51 0.93  
Year to date precipitation 29.30 38.78  
Snow  
Snow 0.00 in 0.00 in 0.00 in ()
Month to date snowfall 0.0 0.0  
Since 1 July snowfall 0.0 0.0  
Since 1 September snowfall 0.0 0.0  
Snow Depth 0.00 in    
Sea Level Pressure  
Sea Level Pressure 30.12 in    
Wind  
Wind Speed 7 mph (NE)    
Max Wind Speed 17 mph    
Max Gust Speed 25 mph    
Visibility 7 miles    
Events Rain    
T = Trace of Precipitation, MM = Missing Value Source: NWS Daily Summary

Daily Weather History Graph

Daily Weather History Graph

Search for Another Location

Airport or City:

Trip Planner

Search our weather history database for the weather conditions in past years. The results will help you decide how hot, cold, wet, or windy it might be!

Date:

Astronomy

Oct. 09, 2011 Rise Set
Actual Time 7:28 AM EDT 7:05 PM EDT
Civil Twilight 7:04 AM EDT 7:29 PM EDT
Nautical Twilight 6:36 AM EDT 7:57 PM EDT
Astronomical Twilight 6:08 AM EDT 8:26 PM EDT
Moon 5:37 PM EDT (10/9) 5:18 AM EDT (10/9)
Length of Visible Light 12h 25m
Length of Day
11h 36m
Waxing Gibbous, 95% of the Moon is Illuminated
Oct 9
Waxing Gibbous
Oct 11
Full
Oct 19
Last Quarter
Oct 26
New
Nov 2
First Quarter

Hourly Weather History & Observations

Time (EDT) Temp. Dew Point Humidity Pressure Visibility Wind Dir Wind Speed Gust Speed Precip Events Conditions
12:53 AM 71.1 °F 55.0 °F 57% 30.18 in 10.0 mi NE 8.1 mph - N/A   Partly Cloudy
1:53 AM 69.1 °F 55.0 °F 61% 30.17 in 10.0 mi Variable 6.9 mph - 0.00 in   Overcast
2:53 AM 69.1 °F 55.0 °F 61% 30.16 in 10.0 mi NE 6.9 mph - N/A   Overcast
3:22 AM 69.8 °F 55.4 °F 60% 30.15 in 10.0 mi Variable 6.9 mph - N/A   Overcast
3:31 AM 69.8 °F 55.4 °F 60% 30.15 in 10.0 mi NE 9.2 mph 16.1 mph N/A   Overcast
3:46 AM 69.8 °F 55.4 °F 60% 30.15 in 10.0 mi NE 8.1 mph - N/A   Overcast
3:53 AM 69.1 °F 55.9 °F 63% 30.14 in 10.0 mi NE 8.1 mph - N/A   Overcast
4:39 AM 64.4 °F 60.8 °F 88% 30.16 in 1.8 mi Variable 3.5 mph - 0.05 in Rain Heavy Rain
4:49 AM 64.4 °F 60.8 °F 88% 30.15 in 3.0 mi Variable 5.8 mph - 0.08 in Rain Light Rain
4:53 AM 64.0 °F 61.0 °F 90% 30.15 in 5.0 mi Variable 4.6 mph - 0.08 in Rain Light Rain
5:10 AM 62.6 °F 60.8 °F 94% 30.16 in 2.5 mi Variable 5.8 mph - 0.07 in Rain Heavy Rain
5:19 AM 62.6 °F 60.8 °F 94% 30.15 in 2.0 mi NNE 5.8 mph - 0.12 in Rain Heavy Rain
5:28 AM 62.6 °F 60.8 °F 94% 30.16 in 4.0 mi Variable 4.6 mph - 0.13 in Rain Rain
5:42 AM 62.6 °F 60.8 °F 94% 30.16 in 4.0 mi NNE 6.9 mph - 0.16 in Rain Rain
5:53 AM 63.0 °F 60.1 °F 90% 30.16 in 3.0 mi Variable 5.8 mph - 0.19 in Rain Light Rain
5:57 AM 62.6 °F 60.8 °F 94% 30.16 in 2.5 mi NE 5.8 mph - 0.00 in Rain Rain
6:03 AM 62.6 °F 60.8 °F 94% 30.16 in 1.8 mi Variable 5.8 mph - 0.03 in Rain Heavy Rain
6:10 AM 62.6 °F 60.8 °F 94% 30.16 in 1.5 mi Variable 3.5 mph - 0.10 in Rain Heavy Rain
6:16 AM 62.6 °F 60.8 °F 94% 30.16 in 2.0 mi NE 5.8 mph - 0.10 in Rain Rain
6:45 AM 62.6 °F 59.0 °F 88% 30.16 in 6.0 mi Variable 3.5 mph - 0.13 in Rain Light Rain
6:53 AM 62.1 °F 59.0 °F 90% 30.15 in 6.0 mi Variable 6.9 mph - 0.13 in Rain Light Rain
7:00 AM 62.6 °F 59.0 °F 88% 30.15 in 4.0 mi Variable 4.6 mph - 0.00 in Rain Light Rain
7:53 AM 63.0 °F 59.0 °F 87% 30.16 in 10.0 mi NNE 4.6 mph - 0.00 in   Mostly Cloudy
8:53 AM 64.9 °F 60.1 °F 84% 30.16 in 10.0 mi Variable 5.8 mph - N/A   Mostly Cloudy
9:53 AM 68.0 °F 62.1 °F 81% 30.16 in 10.0 mi Variable 5.8 mph - N/A   Mostly Cloudy
10:53 AM 72.0 °F 63.0 °F 73% 30.17 in 10.0 mi Variable 6.9 mph - N/A   Partly Cloudy
11:53 AM 73.9 °F 62.1 °F 66% 30.14 in 10.0 mi NE 11.5 mph 20.7 mph N/A   Clear
12:51 PM 71.6 °F 64.4 °F 78% 30.15 in 1.5 mi ENE 11.5 mph 20.7 mph 0.02 in Rain Rain
12:53 PM 70.0 °F 64.0 °F 81% 30.14 in 1.2 mi ENE 8.1 mph 20.7 mph 0.03 in Rain Heavy Rain
1:13 PM 69.8 °F 66.2 °F 88% 30.14 in 1.2 mi Variable 4.6 mph - 0.04 in Rain Rain
1:19 PM 69.8 °F 66.2 °F 88% 30.13 in 2.0 mi NE 5.8 mph - 0.05 in Rain Light Rain
1:28 PM 69.8 °F 66.2 °F 88% 30.13 in 8.0 mi Variable 3.5 mph - 0.05 in   Overcast
1:53 PM 70.0 °F 66.0 °F 87% 30.11 in 5.0 mi NNE 5.8 mph - 0.05 in Rain Light Rain
2:14 PM 71.6 °F 66.2 °F 83% 30.11 in 10.0 mi Variable 3.5 mph - 0.00 in   Overcast
2:33 PM 71.6 °F 64.4 °F 78% 30.10 in 10.0 mi NE 8.1 mph - 0.00 in   Overcast
4:53 PM 77.0 °F 64.9 °F 66% 30.04 in 10.0 mi Variable 5.8 mph - N/A   Mostly Cloudy
5:32 PM 75.2 °F 64.4 °F 69% 30.05 in 10.0 mi ENE 10.4 mph 20.7 mph N/A   Overcast
5:53 PM 75.0 °F 64.0 °F 69% 30.04 in 10.0 mi ENE 10.4 mph 18.4 mph N/A   Mostly Cloudy
6:04 PM 75.2 °F 64.4 °F 69% 30.05 in 10.0 mi NE 15.0 mph 25.3 mph N/A   Mostly Cloudy
6:53 PM 72.0 °F 64.9 °F 78% 30.04 in 10.0 mi NE 9.2 mph 21.9 mph 0.00 in   Mostly Cloudy
8:53 PM 70.0 °F 64.9 °F 84% 30.03 in 10.0 mi NE 10.4 mph 19.6 mph 0.00 in   Overcast
9:53 PM 70.0 °F 64.9 °F 84% 30.04 in 8.0 mi Variable 4.6 mph - 0.00 in   Overcast
10:42 PM 69.8 °F 66.2 °F 88% 30.03 in 5.0 mi Variable 4.6 mph 18.4 mph 0.01 in Rain Light Rain
10:53 PM 69.1 °F 66.0 °F 90% 30.03 in 10.0 mi Variable 5.8 mph - 0.01 in   Overcast
11:04 PM 69.8 °F 66.2 °F 88% 30.03 in 10.0 mi Variable 6.9 mph - N/A   Overcast
11:12 PM 69.8 °F 66.2 °F 88% 30.03 in 10.0 mi Variable 5.8 mph - N/A   Overcast
11:49 PM 69.8 °F 66.2 °F 88% 30.02 in 10.0 mi Variable 5.8 mph - N/A   Overcast
11:53 PM 69.1 °F 66.0 °F 90% 30.01 in 10.0 mi Calm Calm - N/A   Overcast